Regional Weather Roundup
Issued by NWS Newport/Morehead, NC

Home | Current Version | Previous Version | Text Only | Print | Product List | Glossary On
Versions: 1 2 3 4 5 6 7 8 9 10 11 12 13 14 15 16 17 18 19 20 21 22 23 24 25 26 27 28 29 30 31 32 33 34 35 36 37 38 39 40 41 42 43 44 45 46 47 48 49 50
000
ASUS42 KMHX 260324
RWRMHX
WEATHER ROUNDUP FOR EASTERN NORTH CAROLINA
NATIONAL WEATHER SERVICE NEWPORT/MOREHEAD CITY NC
1100 PM EDT SAT APR 25 2015

NOTE: "FAIR" INDICATES FEW OR NO CLOUDS BELOW 12,000 FEET
WITH NO SIGNIFICANT WEATHER AND/OR OBSTRUCTIONS TO VISIBILITY

NCZ015>017-031-032-045>047-102-103-260400-
NORTH COAST

CITY           SKY/WX    TMP DP  RH WIND       PRES   REMARKS
EDENTON        CLOUDY    50  49  97 NE7       29.62F
ELIZABETH CITY LGT RAIN  51  49  92 E13       29.63F
KITTY HAWK     CLOUDY    53  52  98 E6        29.61F FOG
MANTEO         CLOUDY    53  52  97 E9        29.61F

$$

NCZ045>047-081-094-103-104-260400-
CENTRAL COAST

CITY           SKY/WX    TMP DP  RH WIND       PRES   REMARKS
FRISCO         LGT RAIN  56  56 100 NE3       29.58F
SWANQUARTER      N/A     55 N/A N/A NE13      29.56S

$$

NCZ095-097-098-100-101-260400-
SOUTHERN COAST

CITY           SKY/WX    TMP DP  RH WIND       PRES   REMARKS
BEAUFORT       CLOUDY    63  62  97 CALM      29.58F
CEDAR ISLAND     N/A     63 N/A N/A N7        29.62S
JACKSONVILLE   CLOUDY    62  61  96 W3        29.58F
PINEY ISLAND   LGT RAIN N/A N/A N/A NE7       29.58F
WILMINGTON     CLOUDY    68  65  90 SW13      29.61R


$$

NCZ011>013-027>030-043-044-078>080-089-090>093-098-260400-
COASTAL PLAIN

CITY           SKY/WX    TMP DP  RH WIND       PRES   REMARKS
AHOSKIE        DRIZZLE   46  45  96 NE3       29.65F
CLINTON        CLOUDY    61  61 100 CALM      29.63R FOG
ELIZABETHTOWN  CLOUDY    65  65 100 CALM      29.62R
GOLDSBORO      NOT AVBL
GREENVILLE     CLOUDY    55  55 100 E5        29.65S FOG
HAVELOCK       CLOUDY    61  58  90 N6        29.59F
KENANSVILLE    CLOUDY    59  58  96 CALM      29.62R
KINSTON        CLOUDY    57  56  97 NE3       29.61S
NEW BERN       CLOUDY    60  57  89 NE6       29.61F
RICHLANDS      CLOUDY    61  55  82 CALM      29.61S
ROCKY MOUNT    CLOUDY    55  54  96 N5        29.64R FOG
WASHINGTON     CLOUDY    54  53  97 NE6       29.61S
WHITEVILLE     CLOUDY    67  64  93 CALM      29.61R

$$

AMZ130-135-150-152-154-156-158-170-250-252-270-ANZ085-086-088-633-658-670-260400-
MARINE OBSERVATIONS

STATION/POSITION TIME  TEMP    WIND        PRES    WAVE   SWELL
                       AIR SEA DIR/SP/G            HT/PER HT/PER
                 (UTC) (F)     (DEG/KT/KT) (MB)    (FT/S) (FT/S)
CHESAPEAKE LIGHT 0300   47      60/ 16/ 17 1005.1
64 E VA BEACH    0250   54 59   70/ 17/ 19 1003.4    3/ 6   2/ 6
DUCK             0300   52 54   60/ 14/ 15 1002.1
2 E DUCK         0211      54                N/A     3/ 4
10 NE DUCK       NOT AVBL
OREGON INLET     0300   53 58   60/ 11/ 13 1002.2
HATTERAS CG      0200   60 65   60/  6/  8 1002.5
DIAMOND BUOY     0250   67 74   10/  2/  6 1001.1    4/ 6   3/ 6
CAPE LOOKOUT     0300   66     270/  9/ 11 1001.2
BEAUFORT LAB     0200   62 63   CALM  /  3 1001.1
27 SE WRIGHTSVLE 0300   68 72  260/ 21/ 23   N/A
5 SE WRIGHTSVLE  0208   68 65  240/ 12/ 16 1002.4
225 S CAPE HAT   0250   72 71  220/ 23/ 27 1005.9    6/ 6   2/11
41 SE CHARLESTON 0250   72 71  230/ 19/ 25 1004.5    4/ 5   2/ 9

$$



USA.gov is the U.S. government's official web portal to all federal, state and local government web resources and services.